ニート彗星

169P/NEAT (2022)

English version
Home page
Updated on September 18, 2021

---------------------------------------------------------------------

・ プロフィール

・ 軌道要素

Epoch 2022 June 30.0 TT = JDT 2459760.5
T 2022 July  9.68356 TT                                 Rudenko
q   0.6028269            (2000.0)            P               Q
n   0.23478522     Peri.  218.04390     +0.82675427     -0.56240589
a   2.6022891      Node   176.10666     +0.55214224     +0.80668188
e   0.7683474      Incl.   11.29900     +0.10777901     +0.18155980
P   4.20
From 1249 observations 1989 Mar. 7-2021 Apr. 9, mean residual 0".7.

・ 星図

・ 光度変化

        H = 15.3  G = 0.15                [   ,-61]  (              〜2022年 5月 9日)
        m1 = 15.8 + 5 logΔ + 20.0 log r  [-61, 50]  (2022年 5月 9日〜2022年 8月28日)
        H = 15.3  G = 0.15                [ 50,   ]  (2022年 8月28日〜              )

---------------------------------------------------------------------

軌道要素はM.P.E.C. 2021-J28に掲載されたものです。
星図はステラナビゲータ Ver.10 (アストロアーツ) で作成したものです。
光度グラフはComet for Windowsで作成したものです。

---------------------------------------------------------------------

Copyright(C) Seiichi Yoshida (comet@aerith.net). All rights reserved.